CZ-6A DEB, 60899

Orbit data source: Space-Track

CZ-6A DEB, 60899 is space debris in LEO originally from a launch on Tue, 06 Aug 2024 UTC launched from the Taiyaun Space Center, China (TSC). Debris objects in space refer to the collection of defunct objects orbiting the Earth. Examples of debris include non-operational satellites, rocket bodies, and fragments generated from explosions, collisions, or faulty payload assembly.

Loading next visibility...
Identifier
60899, 2024-140LE
Orbit
LEO
Country
Flag of CNCN / PRC
Related business
Manufacturer
SAST
Mission
Spacecraft
Bus & Motor
Unknown
Mass
Unknown
Launch date (UTC)
2024-08-06 (2 years ago)
Launch vehicle
Unknown
Launch site
Taiyaun Space Center, China (TSC)
Object type
Payload
Rocket body
Debris
Shape & HBR
Unknown shape, 0.1 m
Radar Cross Section
Medium (>0.1 m² and <1 m²)

Expand to show TLE details & history
Last TLE update: 13 hours ago

TLE from 13 hours ago
0 CZ-6A DEB
1 60899U 24140LE  26171.31435851  .00001000  00000-0  51582-3 0  9995
2 60899  89.2442 294.6097 0083413 214.8294 144.7417 14.12646580 94658
Epoch: 2026-06-20T07:32Z
TLE epoch observation values (Epoch: 2026-06-20T07:32:40.575Z)
Latitude
-0.00002°
Longitude
-87.09012°
Altitude
902.783 km
Speed
7.375 km/s
True Right ascension
19h 38m 26s
True Declination
0° 00' 00"
Sunlit
Object was in full shadow at epoch
Visualization orbit readout
Latitude
Unknown
Longitude
Unknown
Altitude
Unknown
Speed
Unknown
Apparent Right ascension
Unknown
Apparent Declination
Unknown
Sunlit
N/A
Visualization observer readout
Local Sidereal Time
07:20:23
Azimuth
Unknown
Elevation
Unknown
Doppler factor
Unknown
Orbital elements
Apogee altitude
907.559 km
Perigee altitude
787.02 km
Semi-major axis
7,225.427 km
Eccentricity
0.00834
Inclination
89.2442°
RAAN
294.6097°
Arg. of periapsis
214.8294°
True anomaly
145.28881°
Mean anomaly
144.7417°
Eccentric anomaly
145.01572°
Mean motion
3.53385 °/min
Orbital period
101.87 mins
BSTAR
0.00051582
Loading maneuver chart data...
Computing Atmospheric mass density...
Loading historical data...
Loading historical data...
Loading historical data...
Loading historical data...
Loading historical data...
Loading historical data...
Loading historical data...

Documentation

Showing up to 5 results
|